Fairfield, IL

12:16 PM CST on December 02, 2016 (GMT -0600)
Fairfield Municipal

Weather History for KFWC - October, 2012

Change the Weather History Date:

Friday, October 5, 2012

  Actual Average (KMVN) Record (KMVN)
Temperature  
Mean Temperature 52 °F -  
Max Temperature 62 °F 70 °F 91 °F (2007)
Min Temperature 42 °F 47 °F 32 °F (1999)
Degree Days  
Heating Degree Days 13    
Growing Degree Days 2 (Base 50)    
Moisture  
Dew Point 46 °F    
Average Humidity 85    
Maximum Humidity 93    
Minimum Humidity 72    
Precipitation  
Precipitation 1.25 in - - ()
Sea Level Pressure  
Sea Level Pressure 30.15 in    
Wind  
Wind Speed 8 mph (North)    
Max Wind Speed 15 mph    
Max Gust Speed 25 mph    
Visibility 9 miles    
Events Rain , Thunderstorm    
Averages and records for this station are not official NWS values.
T = Trace of Precipitation, MM = Missing Value Source: NWS Daily Summary

Daily Weather History Graph

Daily Weather History Graph

Search for Another Location

Airport or City:

Trip Planner

Search our weather history database for the weather conditions in past years. The results will help you decide how hot, cold, wet, or windy it might be!

Date:

Astronomy

Oct. 05, 2012 Rise Set
Actual Time 6:53 AM CDT 6:29 PM CDT
Civil Twilight 6:27 AM CDT 6:56 PM CDT
Nautical Twilight 5:56 AM CDT 7:26 PM CDT
Astronomical Twilight 5:25 AM CDT 7:57 PM CDT
Moon 9:56 PM CDT (10/5) 11:57 AM CDT (10/5)
Length of Visible Light 12h 28m
Length of Day
11h 36m
Waning Gibbous, 74% of the Moon is Illuminated
Oct 5
Waning Gibbous
Oct 8
Last Quarter
Oct 15
New
Oct 21
First Quarter
Oct 29
Full

Hourly Weather History & Observations

Time (CDT) Temp. Windchill Dew Point Humidity Pressure Visibility Wind Dir Wind Speed Gust Speed Precip Events Conditions
12:15 AM 62.6 °F - 57.2 °F 82% 30.15 in 10.0 mi North 9.2 mph - N/A   Clear
12:35 AM 60.8 °F - 53.6 °F 77% 30.15 in 10.0 mi North 8.1 mph - N/A   Clear
12:55 AM 59.0 °F - 53.6 °F 82% 30.15 in 10.0 mi North 6.9 mph - N/A   Clear
1:15 AM 57.2 °F - 51.8 °F 82% 30.16 in 10.0 mi North 9.2 mph - N/A   Clear
1:35 AM 57.2 °F - 51.8 °F 82% 30.16 in 10.0 mi North 8.1 mph - N/A   Clear
1:55 AM 55.4 °F - 51.8 °F 88% 30.16 in 10.0 mi North 6.9 mph - N/A   Clear
2:15 AM 55.4 °F - 51.8 °F 88% 30.16 in 10.0 mi North 3.5 mph - N/A   Clear
2:35 AM 55.4 °F - 50.0 °F 82% 30.15 in 10.0 mi North 4.6 mph - N/A   Clear
2:55 AM 53.6 °F - 50.0 °F 88% 30.15 in 10.0 mi North 6.9 mph - N/A   Clear
3:15 AM 53.6 °F - 50.0 °F 88% 30.16 in 10.0 mi North 5.8 mph - N/A   Clear
3:35 AM 53.6 °F - 50.0 °F 88% 30.16 in 10.0 mi North 4.6 mph - N/A   Clear
3:55 AM 53.6 °F - 50.0 °F 88% 30.17 in 10.0 mi North 5.8 mph - N/A   Clear
4:15 AM 53.6 °F - 48.2 °F 82% 30.17 in 10.0 mi North 5.8 mph - N/A   Clear
4:35 AM 53.6 °F - 48.2 °F 82% 30.16 in 10.0 mi North 5.8 mph - N/A   Clear
4:55 AM 51.8 °F - 48.2 °F 88% 30.17 in 10.0 mi North 5.8 mph - N/A   Clear
5:15 AM 51.8 °F - 48.2 °F 88% 30.16 in 10.0 mi North 5.8 mph - N/A   Clear
5:35 AM 51.8 °F - 48.2 °F 88% 30.17 in 10.0 mi North 4.6 mph - N/A   Clear
5:55 AM 51.8 °F - 46.4 °F 82% 30.15 in 10.0 mi NNE 6.9 mph - N/A   Clear
6:15 AM 51.8 °F - 46.4 °F 82% 30.18 in 10.0 mi NNW 8.1 mph - N/A   Scattered Clouds
6:35 AM 51.8 °F - 46.4 °F 82% 30.17 in 10.0 mi North 6.9 mph - N/A   Scattered Clouds
6:55 AM 51.8 °F - 46.4 °F 82% 30.17 in 10.0 mi North 6.9 mph - N/A   Clear
7:15 AM 51.8 °F - 46.4 °F 82% 30.17 in 10.0 mi North 4.6 mph - N/A   Clear
7:35 AM 51.8 °F - 46.4 °F 82% 30.17 in 10.0 mi North 6.9 mph - N/A   Clear
7:55 AM 51.8 °F - 46.4 °F 82% 30.16 in 10.0 mi North 6.9 mph - N/A   Clear
8:15 AM 51.8 °F - 46.4 °F 82% 30.16 in 10.0 mi North 9.2 mph - N/A   Clear
8:35 AM 53.6 °F - 48.2 °F 82% 30.18 in 10.0 mi North 10.4 mph - N/A   Scattered Clouds
8:55 AM 53.6 °F - 46.4 °F 77% 30.19 in 10.0 mi North 6.9 mph - N/A   Scattered Clouds
9:15 AM 53.6 °F - 46.4 °F 77% 30.19 in 10.0 mi North 10.4 mph - N/A   Scattered Clouds
9:35 AM 53.6 °F - 48.2 °F 82% 30.18 in 10.0 mi NNE 9.2 mph - N/A   Scattered Clouds
9:55 AM 53.6 °F - 48.2 °F 82% 30.19 in 10.0 mi North 9.2 mph - N/A   Mostly Cloudy
10:15 AM 53.6 °F - 48.2 °F 82% 30.17 in 10.0 mi NNE 6.9 mph - N/A Thunderstorm Mostly Cloudy
10:35 AM 55.4 °F - 48.2 °F 77% 30.17 in 10.0 mi NE 4.6 mph - N/A   Scattered Clouds
10:55 AM 55.4 °F - 48.2 °F 77% 30.16 in 10.0 mi North 6.9 mph - N/A   Scattered Clouds
11:15 AM 55.4 °F - 48.2 °F 77% 30.16 in 10.0 mi NNE 5.8 mph - N/A   Scattered Clouds
11:35 AM 55.4 °F - 48.2 °F 77% 30.15 in 10.0 mi North 8.1 mph - N/A   Scattered Clouds
11:55 AM 57.2 °F - 48.2 °F 72% 30.15 in 10.0 mi North 8.1 mph - N/A   Scattered Clouds
12:15 PM 57.2 °F - 48.2 °F 72% 30.14 in 10.0 mi NNE 5.8 mph - N/A   Clear
12:35 PM 57.2 °F - 48.2 °F 72% 30.14 in 10.0 mi NNW 9.2 mph - N/A   Clear
12:55 PM 55.4 °F - 48.2 °F 77% 30.11 in 10.0 mi North 9.2 mph - N/A   Scattered Clouds
1:15 PM 53.6 °F - 46.4 °F 77% 30.14 in 10.0 mi NNW 10.4 mph - N/A   Scattered Clouds
1:35 PM 53.6 °F - 46.4 °F 77% 30.13 in 10.0 mi North 10.4 mph 16.1 mph N/A Thunderstorm Thunderstorm
1:55 PM 51.8 °F - 46.4 °F 82% 30.10 in 1.5 mi NNE 9.2 mph - N/A Rain , Thunderstorm Light Thunderstorms and Rain
2:15 PM 50.0 °F - 46.4 °F 87% 30.12 in 10.0 mi North 5.8 mph 10.4 mph N/A Rain , Thunderstorm Light Thunderstorms and Rain
2:35 PM 48.2 °F - 46.4 °F 93% 30.09 in 7.0 mi North 9.2 mph - 0.05 in Rain Rain
2:55 PM 48.2 °F - 46.4 °F 93% 30.10 in 10.0 mi NNW 5.8 mph 17.3 mph 0.07 in Rain , Thunderstorm Light Thunderstorms and Rain
3:15 PM 48.2 °F - 44.6 °F 87% 30.09 in 10.0 mi North 10.4 mph - 0.04 in Rain Heavy Rain
3:35 PM 46.4 °F 41.1 °F 44.6 °F 93% 30.09 in 3.0 mi North 11.5 mph 20.7 mph 0.10 in Rain Rain
3:55 PM 46.4 °F 41.1 °F 42.8 °F 87% 30.09 in 0.2 mi North 11.5 mph 20.7 mph 0.43 in Thunderstorm Overcast
4:15 PM 44.6 °F 38.8 °F 42.8 °F 93% 30.09 in 1.2 mi North 11.5 mph 19.6 mph 0.12 in   Overcast
4:35 PM 44.6 °F 38.8 °F 42.8 °F 93% 30.11 in 7.0 mi North 11.5 mph - 0.19 in Rain , Thunderstorm Heavy Thunderstorms and Rain
4:55 PM 44.6 °F 39.2 °F 42.8 °F 93% 30.11 in 10.0 mi North 10.4 mph 16.1 mph 0.19 in Rain Rain
5:15 PM 44.6 °F 39.2 °F 42.8 °F 93% 30.12 in 10.0 mi North 10.4 mph - 0.02 in Rain Light Rain
5:35 PM 44.6 °F 38.4 °F 42.8 °F 93% 30.11 in 10.0 mi North 12.7 mph 17.3 mph 0.03 in Rain Light Rain
5:55 PM 44.6 °F 39.7 °F 42.8 °F 93% 30.10 in 7.0 mi North 9.2 mph 17.3 mph 0.07 in Rain Heavy Rain
6:15 PM 44.6 °F 39.7 °F 42.8 °F 93% 30.14 in 5.0 mi NNW 9.2 mph 17.3 mph 0.07 in Rain Light Rain
6:35 PM 44.6 °F 37.8 °F 42.8 °F 93% 30.14 in 10.0 mi North 15.0 mph 25.3 mph 0.17 in Rain Rain
6:55 PM 42.8 °F 37.5 °F 41.0 °F 93% 30.15 in 10.0 mi NNW 9.2 mph - 0.17 in   Drizzle
7:15 PM 44.6 °F 38.4 °F 41.0 °F 87% 30.16 in 10.0 mi NNW 12.7 mph 18.4 mph 0.01 in Thunderstorm Unknown
7:35 PM 42.8 °F 37.0 °F 39.2 °F 87% 30.15 in 10.0 mi North 10.4 mph 16.1 mph 0.02 in Rain Rain
7:55 PM 42.8 °F 37.5 °F 39.2 °F 87% 30.14 in 10.0 mi North 9.2 mph 16.1 mph 0.03 in Rain , Thunderstorm Rain
8:15 PM 42.8 °F 39.3 °F 41.0 °F 93% 30.16 in 4.0 mi North 5.8 mph - 0.05 in Rain , Thunderstorm Thunderstorms and Rain
8:35 PM 42.8 °F 38.6 °F 41.0 °F 93% 30.15 in 5.0 mi North 6.9 mph - 0.11 in Rain , Thunderstorm Heavy Thunderstorms and Rain
8:55 PM 42.8 °F 39.3 °F 41.0 °F 93% 30.16 in 4.0 mi NNW 5.8 mph - 0.17 in Rain Rain
9:15 PM 42.8 °F 39.3 °F 39.2 °F 87% 30.17 in 4.0 mi NNW 5.8 mph - 0.10 in   Overcast
9:35 PM 42.8 °F 41.1 °F 41.0 °F 93% 30.17 in 10.0 mi NNW 3.5 mph - 0.12 in Rain Light Rain
9:55 PM 42.8 °F - 41.0 °F 93% 30.17 in 10.0 mi Calm Calm - 0.12 in   Overcast
10:15 PM 42.8 °F 40.1 °F 41.0 °F 93% 30.17 in 10.0 mi NNW 4.6 mph - N/A   Overcast
10:35 PM 42.8 °F 39.3 °F 41.0 °F 93% 30.16 in 10.0 mi North 5.8 mph - N/A   Overcast
10:55 PM 42.8 °F 39.3 °F 39.2 °F 87% 30.17 in 10.0 mi NNW 5.8 mph - N/A   Overcast
11:15 PM 42.8 °F 40.1 °F 39.2 °F 87% 30.17 in 10.0 mi North 4.6 mph - N/A   Mostly Cloudy
11:35 PM 42.8 °F - 39.2 °F 87% 30.18 in 10.0 mi Calm Calm - N/A   Scattered Clouds
11:55 PM 42.8 °F - 39.2 °F 87% 30.18 in 10.0 mi Calm Calm - N/A   Clear